sat.trackr.live / text

‹ back to catalog

STARLINK-5038

NORAD 56472 · 2023-064AA

PAYLOAD ACTIVE UNKNOWN

§ Identity

Operator
Country
US
Launch date
2023-05-10
Launch site
AFWTR
Launch vehicle
Mass (kg)
RCS (m²)

Purposes: comms

External: N2YO · Heavens-Above · Gunter

§ Orbital elements

Epoch: 2026-09-20T22:00:03.000096Z

Period
95.58 min
Inclination
70.0000°
Eccentricity
0.0004175
Mean motion
15.06623537 rev/d
Perigee alt
543.6 km
Apogee alt
549.4 km
Semi-major
6,924.7 km
B*
-2.3753e-4
RAAN
352.1104°
Arg perigee
295.2759°
Mean anomaly
122.7141°
Rev number
571

§ Raw data

STARLINK-50381 56472U 23064AA  26263.91670139 -.00003628  00000+0 -23753-3 0  99972 56472  70.0000 352.1104 0004175 295.2759 122.7141 15.06623537  5714

JSON: /api/v1/satellites/56472 · /tle

For live sub-satellite position, see the globe view (requires WebGL).

§ Visibility from observer

Set your observer location to see the next 7 days of passes ≥ 10°. The values pass through the URL so the page stays shareable.

No JS? Fill the form by hand. The geolocation button needs JavaScript.